Regional Weather Roundup
Issued by NWS Albany, NY

Current Version | Previous Version | Text Only | Print | Product List | Glossary On
Versions: 1 2 3 4 5 6 7 8 9 10 11 12 13 14 15 16 17 18 19 20 21 22 23 24 25 26 27 28 29 30 31 32 33 34 35 36 37 38 39 40 41 42 43 44 45 46 47 48 49 50
000
ASUS41 KALY 112210
RWRALY

NEW YORK STATE HOURLY WEATHER ROUNDUP
NATIONAL WEATHER SERVICE ALBANY NY
500 PM EST TUE DEC 11 2018

NOTE: "FAIR" INDICATES FEW OR NO CLOUDS BELOW 12,000 FEET WITH NO
SIGNIFICANT WEATHER AND/OR NO OBSTRUCTIONS TO VISIBILITY.

NYZ032-033-038>043-046>054-057>066-NYZ062>081-082-084-112300-
EAST


CITY           SKY/WX    TMP DP  RH WIND       PRES   REMARKS
ALBANY         CLOUDY    29  17  61 NW7       29.99F WCI  22
GLENS FALLS    CLOUDY    27  17  66 S6        29.98F WCI  20
POUGHKEEPSIE   FAIR      30  19  63 SE3       29.94F
NEWBURGH       CLEAR     34  23  64 CALM      29.94F
MONTGOMERY     FAIR      29  21  72 CALM      29.93F
WHITE PLAINS   FAIR      33  23  66 CALM      29.94S
ISLIP          FAIR      36  26  67 SW7       29.97S WCI  30
NEW YORK CITY  FAIR      38  27  64 S9        29.96F WCI  31
CENTRAL PARK   FAIR      39  25  57 MISG      29.98S
$$

NYZ005>009-017-018-044>046-055-056-112300-
CENTRAL


CITY           SKY/WX    TMP DP  RH WIND       PRES   REMARKS
FULTON         LGT SNOW  29  22  75 SW7       29.96S WCI  22
SYRACUSE       FLURRIES  29  22  75 SW10      29.97S WCI  20
ROME           LGT SNOW  27  22  81 E6        29.99R WCI  20
ELMIRA         CLOUDY    31  18  58 NW6       29.95S WCI  25
BINGHAMTON     CLOUDY    25  19  78 CALM      29.91R
MONTICELLO     FAIR      28  19  69 NW6       29.91S WCI  22
$$

NYZ026>034-041>043-087-112300-
NORTH


CITY           SKY/WX    TMP DP  RH WIND       PRES   REMARKS
WATERTOWN      LGT SNOW  28  26  92 VRB7      29.94S FOG     WCI  21
FORT DRUM      NOT AVBL
OGDENSBURG     LGT SNOW  28  27  93 S5        29.94S WCI  23
MASSENA        LGT SNOW  25  24  96 CALM      29.96S FOG
SARANAC LAKE   LGT SNOW  21  19  92 SW3       29.86F FOG
PLATTSBURGH    CLOUDY    29  20  69 CALM      29.96R
$$

NYZ001>004-010>016-019>021-085-112300-
WEST


CITY           SKY/WX    TMP DP  RH WIND       PRES   REMARKS
NIAGARA FALLS  CLOUDY    29  24  82 W8        29.95R HAZE    WCI  21
BUFFALO        LGT SNOW  27  25  92 S13       29.95S VSB 1   WCI  16
DUNKIRK        LGT SNOW  29  23  78 SW14      29.97S WCI  18
JAMESTOWN      LGT SNOW  24  21  88 SW7       29.93F FOG     WCI  16
WELLSVILLE     CLOUDY    24  19  81 MISG      29.91S HAZE
ROCHESTER      LGT SNOW  28  27  96 SW7       29.97S FOG     WCI  21
PENN YAN       CLOUDY    29  19  66 SW7       29.95F WCI  22
$$

             KEY
       WCI = WIND CHILL INDEX
       VSB = VISIBILITY
       HX  = HEAT INDEX
$$




USA.gov is the U.S. government's official web portal to all federal, state and local government web resources and services.